13.04.2019;11:15:00;22058;42.5;35
13.04.2019;11:25:00;20203;46.1;36
13.04.2019;11:35:00;18151;49.2;35
13.04.2019;11:45:00;17140;52.1;36
13.04.2019;11:55:00;15193;54.7;38
13.04.2019;12:05:00;14692;57.2;38
13.04.2019;12:15:00;14386;59.6;38
13.04.2019;12:25:00;20347;62.6;35
13.04.2019;12:35:00;24841;66.6;37
13.04.2019;12:45:00;18904;70.0;35
13.04.2019;12:55:00;27494;73.9;37
13.04.2019;13:05:00;22492;78.2;38
13.04.2019;13:15:00;14021;80.6;38
13.04.2019;13:25:00;20371;83.8;36
13.04.2019;13:35:00;29285;88.2;39
13.04.2019;13:45:00;28708;93.2;40
13.04.2019;13:55:00;28368;97.8;40
13.04.2019;14:05:00;26296;102.5;40
13.04.2019;14:15:00;29390;107.3;40
13.04.2019;14:25:00;26303;111.9;39
13.04.2019;14:35:00;28821;116.7;40
13.04.2019;14:45:00;31047;121.5;40
13.04.2019;14:55:00;23258;125.7;38
13.04.2019;15:05:00;46048;131.8;45
13.04.2019;15:15:00;35136;137.0;42
13.04.2019;15:25:00;44167;143.2;45
13.04.2019;15:35:00;28242;148.8;41
13.04.2019;15:45:00;28252;153.2;40
13.04.2019;15:55:00;39162;160.1;45
13.04.2019;16:05:00;29456;165.5;42
13.04.2019;16:15:00;15705;168.1;36
13.04.2019;16:25:00;19064;171.4;37
13.04.2019;16:35:00;29672;175.6;40
13.04.2019;16:45:00;35828;181.3;43
13.04.2019;16:55:00;32521;187.1;43
13.04.2019;17:05:00;22825;191.2;38
13.04.2019;17:15:00;26365;195.9;40
13.04.2019;17:25:00;20845;199.0;36
13.04.2019;17:35:00;25514;203.7;40
13.04.2019;17:45:00;12686;206.0;37
13.04.2019;17:55:00;5845;207.2;36
13.04.2019;18:05:00;2997;207.7;38
13.04.2019;18:15:00;2337;208.2;38
13.04.2019;18:25:00;1641;208.5;39
13.04.2019;18:35:00;997;208.7;39
13.04.2019;18:45:00;1181;208.9;39
13.04.2019;18:55:00;1250;209.1;36
13.04.2019;19:05:00;1097;209.3;38
13.04.2019;19:15:00;1771;209.6;38
13.04.2019;19:25:00;1435;209.9;38
13.04.2019;19:35:00;409;209.9;38
13.04.2019;19:45:00;253;210.0;39
13.04.2019;19:55:00;140;210.0;38
14.04.2019;07:15:00;10;0;29
14.04.2019;07:25:00;17;0;29
14.04.2019;07:35:00;22;0;29
14.04.2019;07:45:00;81;0;29
14.04.2019;07:55:00;52;0;30
14.04.2019;08:05:00;149;0;30
14.04.2019;08:15:00;125;0;31
14.04.2019;08:25:00;18;0;31
14.04.2019;08:35:00;229;0;31
14.04.2019;08:45:00;290;0.1;32
14.04.2019;08:55:00;260;0.1;32
14.04.2019;09:05:00;207;0.2;33
14.04.2019;09:15:00;271;0.2;33
14.04.2019;09:25:00;220;0.3;33
14.04.2019;09:35:00;269;0.3;34
14.04.2019;09:45:00;275;0.3;34
14.04.2019;09:55:00;327;0.4;34
14.04.2019;10:05:00;359;0.5;34
14.04.2019;10:15:00;362;0.5;35
14.04.2019;10:25:00;323;0.6;35
14.04.2019;10:35:00;356;0.6;35
14.04.2019;10:45:00;427;0.7;35
14.04.2019;10:55:00;616;0.8;36
14.04.2019;11:05:00;705;0.9;36
14.04.2019;11:15:00;650;1.0;36
14.04.2019;11:25:00;473;1.1;37
14.04.2019;11:35:00;543;1.2;37
14.04.2019;11:45:00;519;1.3;37
14.04.2019;11:55:00;493;1.4;37
14.04.2019;12:05:00;674;1.5;37
14.04.2019;12:15:00;2580;1.8;38
14.04.2019;12:25:00;842;2.0;39
14.04.2019;12:35:00;2063;2.3;39
14.04.2019;12:45:00;1766;2.7;34
14.04.2019;12:55:00;1341;2.9;36
14.04.2019;13:05:00;1163;3.1;36
14.04.2019;13:15:00;1146;3.3;37
14.04.2019;13:25:00;1258;3.5;37
14.04.2019;13:35:00;975;3.7;38
14.04.2019;13:45:00;985;3.8;38
14.04.2019;13:55:00;1317;4.0;38
14.04.2019;14:05:00;1070;4.2;39
14.04.2019;14:15:00;1248;4.4;39
14.04.2019;14:25:00;1797;4.7;39
14.04.2019;14:35:00;2658;5.1;35
14.04.2019;14:45:00;2999;5.6;37
14.04.2019;14:55:00;3481;6.1;38
14.04.2019;15:05:00;4178;6.9;35
14.04.2019;15:15:00;2631;7.4;36
14.04.2019;15:25:00;1960;7.7;37
14.04.2019;15:35:00;6222;8.5;37
14.04.2019;15:45:00;3870;9.1;36
14.04.2019;15:55:00;3310;9.8;38
14.04.2019;16:05:00;2225;10.2;39
14.04.2019;16:15:00;1590;10.5;39
14.04.2019;16:25:00;1282;10.7;39
14.04.2019;16:35:00;1144;10.9;36
14.04.2019;16:45:00;1267;11.1;36
14.04.2019;16:55:00;1342;11.3;37
14.04.2019;17:05:00;1096;11.5;37
14.04.2019;17:15:00;1373;11.7;38
14.04.2019;17:25:00;1557;12.0;38
14.04.2019;17:35:00;1245;12.2;39
14.04.2019;17:45:00;1125;12.4;39
14.04.2019;17:55:00;1025;12.5;39
14.04.2019;18:05:00;943;12.7;39
14.04.2019;18:15:00;736;12.8;39
14.04.2019;18:25:00;557;12.9;39
14.04.2019;18:35:00;52023.07.2019;15:05:00;43480;195.9;53
23.07.2019;15:15:00;43610;203.2;53
23.07.2019;15:25:00;43493;210.4;53
23.07.2019;15:35:00;43307;217.6;53
23.07.2019;15:45:00;42912;224.8;52
23.07.2019;15:55:00;42960;232.0;52
23.07.2019;16:05:00;42625;239.0;52
23.07.2019;16:15:00;42093;246.1;52
23.07.2019;16:25:00;41901;253.0;51
23.07.2019;16:35:00;41220;259.9;51
23.07.2019;16:45:00;40708;266.7;50
23.07.2019;16:55:00;39735;273.4;50
23.07.2019;17:05:00;37126;279.8;48
23.07.2019;17:15:00;38870;286.2;49
23.07.2019;17:25:00;36276;292.3;48
23.07.2019;17:35:00;37876;298.6;49
23.07.2019;17:45:00;36494;304.8;48
23.07.2019;17:55:00;35551;310.7;48
23.07.2019;18:05:00;34841;316.6;47
23.07.2019;18:15:00;33544;322.2;47
23.07.2019;18:25:00;31862;327.6;46
23.07.2019;18:35:00;30295;332.7;45
23.07.2019;18:45:00;28827;337.6;45
23.07.2019;19:05:00;25568;346.5;43
23.07.2019;19:15:00;23454;350.5;42
23.07.2019;19:25:00;20928;354.1;41
23.07.2019;19:35:00;18677;357.3;40
23.07.2019;19:45:00;13374;359.8;39
23.07.2019;19:55:00;10169;361.5;39
23.07.2019;20:05:00;8050;363.0;39
23.07.2019;20:15:00;7662;364.3;38
23.07.2019;20:25:00;4423;365.1;41
23.07.2019;20:35:00;2381;365.6;40
23.07.2019;20:45:00;1277;365.8;41
23.07.2019;20:55:00;369;365.9;42
23.07.2019;21:05:00;211;366.0;42
23.07.2019;21:25:00;9;366.0;41
24.07.2019;05:45:00;6;0;33
24.07.2019;06:05:00;293;0;35
24.07.2019;06:15:00;495;0.1;36
24.07.2019;06:25:00;688;0.2;37
24.07.2019;06:45:00;1060;0.5;38
24.07.2019;06:55:00;1226;0.7;38
24.07.2019;07:05:00;1580;0.9;39
24.07.2019;07:25:00;1950;1.5;38
24.07.2019;07:35:00;2204;1.9;39
24.07.2019;07:55:00;2554;2.7;37
24.07.2019;08:05:00;2750;3.1;39
24.07.2019;08:15:00;3006;3.6;39
24.07.2019;08:25:00;3440;4.2;38
24.07.2019;08:35:00;4108;4.8;39
24.07.2019;08:45:00;4936;5.6;36
24.07.2019;08:55:00;6151;6.6;39
24.07.2019;09:05:00;7451;7.8;36
24.07.2019;09:15:00;8943;9.2;38
24.07.2019;09:25:00;10494;10.9;36
24.07.2019;09:35:00;12114;12.8;36
24.07.2019;09:45:00;13777;15.1;37
24.07.2019;09:55:00;15520;17.6;38
24.07.2019;10:05:00;17116;20.3;39
24.07.2019;10:15:00;18835;23.4;40
24.07.2019;10:25:00;20424;26.7;41
24.07.2019;10:40:00;22501;32.2;42
24.07.2019;10:45:00;23216;34.1;42
24.07.2019;11:00:00;25431;40.3;43
24.07.2019;11:10:00;26977;44.7;44
24.07.2019;11:20:00;28276;49.3;44
24.07.2019;11:30:00;29333;54.2;45
24.07.2019;11:40:00;30710;59.2;45
24.07.2019;11:50:00;31864;64.5;46
24.07.2019;12:00:00;32937;70.0;47
24.07.2019;12:10:00;34038;75.6;47
24.07.2019;12:20:00;34940;81.4;47
24.07.2019;12:30:00;36038;87.3;48
24.07.2019;12:40:00;36961;93.4;48
24.07.2019;12:50:00;37865;99.7;49
24.07.2019;13:00:00;38803;106.1;49
24.07.2019;13:10:00;39475;112.7;50
24.07.2019;13:20:00;39641;119.3;50
24.07.2019;13:30:00;40559;126.0;50
24.07.2019;13:40:00;40710;132.9;51
24.07.2019;13:50:00;41563;139.8;51
24.07.2019;14:00:00;42037;146.6;52
24.07.2019;14:10:00;42350;153.7;52
24.07.2019;14:20:00;43000;160.8;52
24.07.2019;14:30:00;43182;168.0;53
24.07.2019;14:40:00;43245;175.2;53
24.07.2019;14:50:00;43291;182.6;53
24.07.2019;15:00:00;43377;189.7;53
24.07.2019;15:10:00;43661;196.9;53
24.07.2019;15:20:00;43643;204.2;53
24.07.2019;15:30:00;43335;211.4;53
24.07.2019;15:40:00;42755;218.6;52
24.07.2019;15:50:00;42788;225.7;52
24.07.2019;16:00:00;42225;232.8;52
24.07.2019;16:10:00;41893;239.8;52
24.07.2019;16:20:00;41458;246.7;51
24.07.2019;16:30:00;41171;253.6;51
24.07.2019;16:40:00;40363;260.5;51
24.07.2019;16:50:00;39856;267.1;50
24.07.2019;17:00:00;39181;273.6;50
24.07.2019;17:10:00;38693;280.0;50
24.07.2019;17:20:00;37825;286.4;49
24.07.2019;17:30:00;37008;292.6;49
24.07.2019;17:40:00;35841;298.6;48
24.07.2019;17:50:00;34583;304.5;47
24.07.2019;18:00:00;33354;310.1;47
24.07.2019;18:10:00;32077;315.5;46
24.07.2019;18:20:00;30465;320.7;46
24.07.2019;18:40:00;27334;330.2;44
24.07.2019;18:50:00;26003;334.5;44
24.07.2019;19:00:00;24260;338.6;43
24.07.2019;19:10:00;22422;342.4;42
24.07.2019;19:20:00;20428;345.9;41
24.07.2019;19:30:00;18335;349.1;41
24.07.2019;19:40:00;13926;351.7;40
24.07.2019;19:50:00;8891;353.3;39
24.07.2019;20:00:00;7762;354.7;39
24.07.2019;20:10:00;5896;355.8;39
24.07.2019;20:20:00;4509;356.6;41
24.07.2019;20:30:00;2340;357.0;39
24.07.2019;20:40:00;1293;357.3;41
24.07.2019;20:50:00;441;357.4;42
24.07.2019;21:00:00;182;357.4;40
24.07.2019;21:10:00;10;357.5;41
24.07.2019;21:20:00;7;357.5;41
25.07.2019;06:05:00;235;0;36
25.07.2019;06:15:00;402;0;37
25.07.2019;06:35:00;998;0.3;38
25.07.2019;06:55:00;1721;0.8;39
25.07.2019;07:05:00;1945;1.1;38
25.07.2019;07:15:00;2116;1.4;38
25.07.2019;07:25:00;2359;1.8;39
25.07.2019;07:35:00;2437;2.2;39
25.07.2019;07:45:00;2485;2.6;38
25.07.2019;07:55:00;2754;3.1;39
25.07.2019;08:05:00;2959;3.6;39
25.07.2019;08:15:00;3221;4.1;38
25.07.2019;08:25:00;3637;4.7;39
25.07.2019;08:35:00;4284;5.4;37
25.07.2019;08:45:00;5387;6.2;39
25.07.2019;08:55:00;6826;7.3;36
25.07.2019;09:05:00;8008;8.5;39
25.07.2019;09:15:00;9930;10.1;36
25.07.2019;09:25:00;11584;11.9;36
25.07.2019;09:35:00;12379;14.0;36
25.07.2019;09:45:00;14321;16.2;37
25.07.2019;09:55:00;15291;18.7;38
25.07.2019;10:05:00;17758;21.6;40
25.07.2019;10:15:00;19144;24.7;41
25.07.2019;10:25:00;20477;28.1;41
25.07.2019;10:35:00;22036;31.7;42
25.07.2019;10:45:00;23494;35.5;42
25.07.2019;10:55:00;24662;39.6;43
25.07.2019;11:05:00;26153;43.9;44
25.07.2019;11:15:00;27747;48.4;44
25.07.2019;11:25:00;28902;53.2;45
25.07.2019;11:35:00;30071;58.2;45
25.07.2019;11:45:00;31267;63.3;46
25.07.2019;11:55:00;32368;68.7;46
25.07.2019;12:05:00;33436;74.2;47
25.07.2019;12:15:00;34405;79.9;47
25.07.2019;12:25:00;35383;85.7;48
25.07.2019;12:35:00;36340;91.7;48
25.07.2019;12:45:00;37045;97.9;49
25.07.2019;12:55:00;38204;104.2;49
25.07.2019;13:05:00;38995;110.7;50
25.07.2019;13:15:00;39453;117.2;50
25.07.2019;13:25:00;40431;123.9;51
25.07.2019;13:35:00;40915;130.7;51
25.07.2019;13:45:00;41512;137.6;52
25.07.2019;13:55:00;42073;144.6;52
25.07.2019;14:05:00;42561;151.7;52
25.07.2019;14:15:00;42600;158.8;53
25.07.2019;14:25:00;42544;165.8;53
25.07.2019;14:35:00;42457;172.9;53
25.07.2019;14:45:00;42798;180.0;53
25.07.2019;14:55:00;43032;187.2;53
25.07.2019;15:05:00;43210;194.4;53
25.07.2019;15:15:00;43138;201.6;53
25.07.2019;15:25:00;43123;208.8;53
25.07.2019;15:35:00;42829;215.9;53
25.07.2019;15:45:00;42821;223.1;53
25.07.2019;15:55:00;43671;230.3;53
25.07.2019;16:05:00;37693;237.1;51
25.07.2019;16:15:00;28236;242.3;46
25.07.2019;16:25:00;34539;247.8;47
25.07.2019;16:35:00;30431;253.2;46
25.07.2019;16:45:00;34214;259.0;47
25.07.2019;16:55:00;27016;264.1;45
25.07.2019;17:05:00;29710;268.7;45
25.07.2019;17:15:00;29909;273.4;45
25.07.2019;17:25:00;34652;278.9;47
25.07.2019;17:35:00;27959;284.0;45
25.07.2019;17:45:00;25794;287.6;43
25.07.2019;17:55:00;31567;292.7;46
25.07.2019;18:05:00;29399;297.7;45
25.07.2019;18:15:00;18506;301.3;41
25.07.2019;18:25:00;18864;304.4;41
25.07.2019;18:35:00;18378;307.6;41
25.07.2019;18:45:00;13218;310.0;40
25.07.2019;18:55:00;15023;312.6;40
25.07.2019;19:05:00;13758;314.9;39
25.07.2019;19:15:00;7912;316.4;39
25.07.2019;19:25:00;6816;317.6;39
25.07.2019;19:35:00;6219;318.7;41
25.07.2019;19:45:00;4742;319.5;39
25.07.2019;19:55:00;3745;320.2;41
25.07.2019;20:05:00;3006;320.7;40
25.07.2019;20:15:00;2532;321.2;40
25.07.2019;20:25:00;1876;321.5;42
25.07.2019;20:35:00;1166;321.7;41
25.07.2019;20:45:00;584;321.9;40
25.07.2019;20:55:00;370;321.9;41
25.07.2019;21:05:00;147;322.0;42
25.07.2019;21:15:00;11;322.0;41
25.07.2019;21:25:00;6;322.0;41
26.07.2019;05:45:00;0;0;30
26.07.2019;06:05:00;202;0;35
26.07.2019;06:15:00;378;0;37
26.07.2019;06:25:00;600;0.1;37
26.07.2019;06:35:00;724;0.2;38
26.07.2019;06:45:00;871;0.4;38
26.07.2019;06:55:00;1050;0.5;39
26.07.2019;07:05:00;1442;0.8;39
26.07.2019;07:15:00;2012;1.1;37
26.07.2019;07:25:00;2545;1.5;39
26.07.2019;07:35:00;2814;1.9;40
26.07.2019;07:45:00;2944;2.4;37
26.07.2019;07:55:00;3318;3.0;39
26.07.2019;08:05:00;3660;3.5;38
26.07.2019;08:15:00;4021;4.2;38
26.07.2019;08:25:00;4519;4.9;39
26.07.2019;08:35:00;4892;5.7;38
26.07.2019;08:45:00;5626;6.6;39
26.07.2019;08:55:00;6421;7.6;37
26.07.2019;09:05:00;8010;8.9;38
26.07.2019;09:15:00;9314;10.4;36
26.07.2019;09:25:00;10999;12.2;36
26.07.2019;09:35:00;12286;14.1;37
26.07.2019;09:45:00;13813;16.3;37
26.07.2019;09:55:00;15778;18.9;39
26.07.2019;10:05:00;17173;21.7;40
26.07.2019;10:15:00;18372;24.8;41
26.07.2019;10:25:00;19187;27.8;41
26.07.2019;10:35:00;20887;31.2;42
26.07.2019;10:45:00;20550;34.6;42
26.07.2019;10:55:00;18706;37.7;41
26.07.2019;11:05:00;22700;41.1;42
26.07.2019;11:15:00;21196;44.7;42
26.07.2019;11:25:00;27726;48.9;44
26.07.2019;11:35:00;27258;53.6;44
26.07.2019;11:45:00;31382;58.7;46
26.07.2019;11:55:00;32624;64.1;47
26.07.2019;12:05:00;33396;69.6;47
26.07.2019;12:15:00;34067;75.3;47
26.07.2019;12:25:00;35292;81.1;48
26.07.2019;12:35:00;36121;87.1;48
26.07.2019;12:45:00;37048;93.2;49
26.07.2019;12:55:00;37738;99.4;49
26.07.2019;13:05:00;38701;105.8;50
26.07.2019;13:15:00;39432;112.4;50
26.07.2019;13:25:00;39492;119.0;51
26.07.2019;13:35:00;39740;125.6;51
26.07.2019;13:50:00;40824;135.7;51
26.07.2019;14:00:00;41742;142.6;51
26.07.2019;14:10:00;41157;149.3;51
26.07.2019;14:20:00;41696;156.3;52
26.07.2019;14:30:00;41450;163.2;52
26.07.2019;14:40:00;41897;170.1;52
26.07.2019;14:50:00;41417;177.0;52
26.07.2019;15:00:00;41683;184.0;52
26.07.2019;15:10:00;42115;191.0;52
26.07.2019;15:20:00;41794;197.9;52
26.07.2019;15:30:00;41490;204.8;52
26.07.2019;15:40:00;41418;211.8;52
26.07.2019;15:50:00;41465;218.7;52
26.07.2019;16:00:00;41465;225.6;52
26.07.2019;16:10:00;35644;231.8;49
26.07.2019;16:20:00;40959;238.2;50
26.07.2019;16:30:00;39377;245.0;51
26.07.2019;16:40:00;28706;249.6;45
26.07.2019;16:50:00;40915;255.9;50
26.07.2019;17:00:00;36051;262.0;49
26.07.2019;17:10:00;39168;268.5;50
26.07.2019;17:20:00;39380;275.1;50
26.07.2019;17:30:00;34167;281.0;48
26.07.2019;17:40:00;28881;286.1;46
26.07.2019;17:50:00;28992;290.8;45
26.07.2019;18:00:00;25108;295.2;44
26.07.2019;18:10:00;15600;298.1;41
26.07.2019;18:20:00;11369;300.2;42
26.07.2019;18:30:00;10693;301.9;41
26.07.2019;18:40:00;10526;303.7;40
26.07.2019;18:50:00;11046;305.6;40
26.07.2019;19:00:00;10155;307.3;40
26.07.2019;19:10:00;9065;308.9;39
26.07.2019;19:20:00;7300;310.2;39
26.07.2019;19:30:00;5213;311.2;39
26.07.2019;19:40:00;3792;311.9;42
26.07.2019;19:50:00;2644;312.3;39
26.07.2019;20:00:00;2348;312.7;41
26.07.2019;20:10:00;2077;313.1;42
26.07.2019;20:20:00;1742;313.4;39
26.07.2019;20:30:00;1332;313.6;41
26.07.2019;20:40:00;756;313.8;42
26.07.2019;20:50:00;361;313.9;41
26.07.2019;21:00:00;164;313.9;40
26.07.2019;21:10:00;5;313.9;41
27.07.2019;06:05:00;4;0;35
27.07.2019;06:15:00;8;0;36
27.07.2019;06:35:00;381;0;37
27.07.2019;06:45:00;643;0.1;38
27.07.2019;06:55:00;1087;0.3;38
27.07.2019;07:05:00;1905;0.6;39
27.07.2019;07:15:00;2889;1.0;39
27.07.2019;07:25:00;3774;1.6;37
27.07.2019;07:35:00;4541;2.3;39
27.07.2019;07:45:00;5326;3.2;37
27.07.2019;07:55:00;5960;4.1;39
27.07.2019;08:05:00;6843;5.3;37
27.07.2019;08:15:00;7377;6.4;38
27.07.2019;08:25:00;7990;7.7;37
27.07.2019;08:35:00;8378;9.1;37
27.07.2019;08:45:00;8341;10.5;37
27.07.2019;08:55:00;9413;12.0;37
27.07.2019;09:05:00;9944;13.7;36
27.07.2019;09:15:00;9136;15.2;37
27.07.2019;09:25:00;10269;16.9;37
27.07.2019;09:35:00;10872;18.7;36
27.07.2019;09:45:00;7437;20.1;37
27.07.2019;09:55:00;6457;21.2;37
27.07.2019;10:05:00;5388;22.1;38
27.07.2019;10:15:00;5269;23.0;37
27.07.2019;10:25:00;5695;23.9;39
27.07.2019;10:35:00;6991;25.0;37
27.07.2019;10:45:00;9407;26.4;38
27.07.2019;10:55:00;12650;28.4;37
27.07.2019;11:05:00;16550;31.0;38
27.07.2019;11:15:00;26723;34.8;42
27.07.2019;11:25:00;21689;38.7;42
27.07.2019;11:35:00;28195;43.2;44
27.07.2019;11:45:00;29278;48.5;45
27.07.2019;11:55:00;35068;54.2;47
27.07.2019;12:05:00;32147;59.7;46
27.07.2019;12:15:00;33847;64.6;46
27.07.2019;12:25:00;36428;70.7;48
27.07.2019;12:35:00;37359;76.9;48
27.07.2019;12:45:00;37957;83.5;49
27.07.2019;12:55:00;38783;89.6;49
27.07.2019;13:05:00;39444;96.1;50
27.07.2019;13:15:00;40215;103.0;50
27.07.2019;13:25:00;41601;109.6;51
27.07.2019;13:35:00;42063;116.7;52
27.07.2019;13:45:00;45006;124.1;53
27.07.2019;13:55:00;44632;131.0;52
27.07.2019;14:05:00;43674;135.6;49
27.07.2019;14:15:00;43940;143.3;53
27.07.2019;14:25:00;31601;149.1;48
27.07.2019;14:35:00;45252;154.5;50
27.07.2019;14:45:00;44198;162.0;53
27.07.2019;14:55:00;19232;167.2;45
27.07.2019;15:10:00;45409;175.0;52
27.07.2019;15:15:00;33122;177.9;50
27.07.2019;15:30:00;28800;185.0;46
27.07.2019;15:40:00;16762;188.0;42
27.07.2019;15:50:00;15736;190.703.09.2019;17:05:00;35851;254.0;46
03.09.2019;17:15:00;35122;259.9;46
03.09.2019;17:25:00;33414;265.6;45
03.09.2019;17:35:00;31604;270.9;44
03.09.2019;17:45:00;30456;276.0;44
03.09.2019;17:55:00;28877;280.9;43
03.09.2019;18:05:00;26265;285.4;42
03.09.2019;18:15:00;25582;289.7;42
03.09.2019;18:25:00;23236;293.7;41
03.09.2019;18:35:00;17022;297.0;39
03.09.2019;18:45:00;8893;298.8;38
03.09.2019;18:55:00;12153;300.7;38
03.09.2019;19:05:00;10758;302.6;37
03.09.2019;19:15:00;5202;303.8;39
03.09.2019;19:25:00;1519;304.2;41
03.09.2019;19:35:00;746;304.3;39
03.09.2019;19:45:00;504;304.4;41
03.09.2019;19:55:00;328;304.5;41
03.09.2019;20:05:00;67;304.5;41
03.09.2019;20:15:00;11;304.5;40
04.09.2019;06:40:00;5;0;30
04.09.2019;06:50:00;137;0;31
04.09.2019;07:00:00;304;0;33
04.09.2019;07:10:00;487;0.1;34
04.09.2019;07:20:00;671;0.2;34
04.09.2019;07:30:00;843;0.3;35
04.09.2019;07:40:00;989;0.5;35
04.09.2019;07:50:00;1116;0.7;36
04.09.2019;08:00:00;1224;0.9;36
04.09.2019;08:10:00;1494;1.1;37
04.09.2019;08:20:00;1667;1.4;37
04.09.2019;08:30:00;1781;1.6;38
04.09.2019;08:40:00;1918;2.0;39
04.09.2019;08:50:00;2013;2.3;36
04.09.2019;09:00:00;2466;2.7;37
04.09.2019;09:10:00;2953;3.1;38
04.09.2019;09:20:00;3860;3.7;36
04.09.2019;09:30:00;5106;4.5;37
04.09.2019;09:40:00;6606;5.6;35
04.09.2019;09:50:00;8287;6.9;38
04.09.2019;10:00:00;10050;8.5;36
04.09.2019;10:10:00;11959;10.4;35
04.09.2019;10:20:00;13826;12.6;35
04.09.2019;10:30:00;15682;15.1;36
04.09.2019;10:40:00;17505;18.0;37
04.09.2019;10:50:00;19322;21.1;38
04.09.2019;11:00:00;21019;24.5;39
04.09.2019;11:10:00;22578;28.2;40
04.09.2019;11:20:00;24204;32.2;41
04.09.2019;11:30:00;25709;36.4;42
04.09.2019;11:40:00;27173;40.9;42
04.09.2019;11:50:00;28412;45.6;43
04.09.2019;12:00:00;29697;50.4;43
04.09.2019;12:10:00;30904;55.5;44
04.09.2019;12:20:00;32097;60.8;44
04.09.2019;12:30:00;33265;66.3;45
04.09.2019;12:40:00;34247;72.0;45
04.09.2019;12:50:00;35415;77.9;46
04.09.2019;13:00:00;36133;83.9;46
04.09.2019;13:10:00;37140;90.0;47
04.09.2019;13:20:00;37808;96.3;47
04.09.2019;13:30:00;38416;102.7;47
04.09.2019;13:40:00;38926;109.1;48
04.09.2019;13:50:00;39319;115.7;48
04.09.2019;14:00:00;40107;122.3;48
04.09.2019;14:10:00;39844;129.0;48
04.09.2019;14:20:00;40481;135.7;48
04.09.2019;14:30:00;40357;142.4;48
04.09.2019;14:40:00;40798;149.2;48
04.09.2019;14:50:00;40549;156.0;48
04.09.2019;15:00:00;40877;162.8;48
04.09.2019;15:10:00;40819;169.6;48
04.09.2019;15:20:00;40364;176.4;48
04.09.2019;15:30:00;40290;183.1;48
04.09.2019;15:40:00;40007;189.8;48
04.09.2019;15:50:00;39837;196.4;48
04.09.2019;16:00:00;39699;203.1;48
04.09.2019;16:10:00;39581;209.7;48
04.09.2019;16:20:00;39148;216.3;48
04.09.2019;16:30:00;38745;222.7;48
04.09.2019;16:40:00;37939;229.1;47
04.09.2019;16:50:00;37074;235.3;47
04.09.2019;17:00:00;35919;241.4;46
04.09.2019;17:10:00;34844;247.2;46
04.09.2019;17:20:00;33290;252.8;45
04.09.2019;17:30:00;31463;258.1;44
04.09.2019;17:40:00;30093;263.2;44
04.09.2019;17:50:00;28081;268.0;43
04.09.2019;18:00:00;26547;272.5;42
04.09.2019;18:10:00;25001;276.7;42
04.09.2019;18:20:00;23059;280.7;41
04.09.2019;18:30:00;18880;284.1;39
04.09.2019;18:40:00;10353;286.2;38
04.09.2019;18:50:00;10802;287.8;40
04.09.2019;19:00:00;10167;289.6;38
04.09.2019;19:10:00;7469;291.0;39
04.09.2019;19:20:00;2813;291.6;38
04.09.2019;19:30:00;1644;291.9;40
04.09.2019;19:40:00;983;292.1;41
04.09.2019;19:50:00;517;292.2;41
04.09.2019;20:00:00;237;292.3;39
05.09.2019;06:40:00;1;0;30
05.09.2019;06:50:00;27;0;32
05.09.2019;07:00:00;293;0;33
05.09.2019;07:10:00;585;0.1;34
05.09.2019;07:20:00;1084;0.2;34
05.09.2019;07:30:00;1001;0.4;35
05.09.2019;07:40:00;1247;0.6;36
05.09.2019;07:50:00;1901;0.9;36
05.09.2019;08:00:00;2620;1.3;37
05.09.2019;08:10:00;2296;1.7;38
05.09.2019;08:20:00;3757;2.3;38
05.09.2019;08:30:00;4217;2.9;36
05.09.2019;08:40:00;4560;3.7;38
05.09.2019;08:50:00;5197;4.5;36
05.09.2019;09:00:00;4822;5.3;38
05.09.2019;09:10:00;3149;5.9;36
05.09.2019;09:20:00;4572;6.5;38
05.09.2019;09:40:00;7502;8.6;38
05.09.2019;09:45:00;7173;9.2;36
05.09.2019;09:55:00;9554;10.7;38
05.09.2019;10:05:00;8989;12.1;37
05.09.2019;10:15:00;8804;13.8;35
05.09.2019;10:25:00;5926;14.9;38
05.09.2019;10:35:00;3701;15.5;36
05.09.2019;10:45:00;3476;16.1;38
05.09.2019;10:55:00;3607;16.7;39
05.09.2019;11:05:00;5742;17.5;37
05.09.2019;11:15:00;8892;19.0;35
05.09.2019;11:25:00;6182;20.2;38
05.09.2019;11:35:00;5921;21.2;36
05.09.2019;11:45:00;3013;21.8;38
05.09.2019;11:55:00;1953;22.1;39
05.09.2019;12:05:00;1113;22.3;39
05.09.2019;12:15:00;1368;22.6;37
05.09.2019;12:25:00;1389;22.8;38
05.09.2019;12:35:00;4351;23.4;39
05.09.2019;12:45:00;4444;24.1;37
05.09.2019;12:55:00;3661;24.7;38
05.09.2019;13:05:00;3047;25.2;38
05.09.2019;13:15:00;2622;25.7;38
05.09.2019;13:25:00;2527;26.1;38
05.09.2019;13:35:00;2848;26.5;39
05.09.2019;13:45:00;4036;27.1;37
05.09.2019;13:55:00;3703;27.7;38
05.09.2019;14:05:00;5310;28.6;36
05.09.2019;14:15:00;7330;29.7;38
05.09.2019;14:25:00;9176;31.2;37
05.09.2019;14:35:00;6426;32.6;35
05.09.2019;14:45:00;3154;33.2;38
05.09.2019;14:55:00;2905;33.7;38
05.09.2019;15:05:00;2857;34.2;36
05.09.2019;15:15:00;2581;34.6;38
05.09.2019;15:25:00;3105;35.1;38
05.09.2019;15:35:00;3479;35.6;36
05.09.2019;15:45:00;4146;36.3;38
05.09.2019;15:55:00;6159;37.2;37
05.09.2019;16:05:00;5979;38.2;38
05.09.2019;16:15:00;5798;39.2;36
05.09.2019;16:25:00;7109;40.3;38
05.09.2019;16:35:00;5147;41.2;37
05.09.2019;16:45:00;7232;42.3;37
05.09.2019;16:55:00;7170;43.5;37
05.09.2019;17:05:00;9173;44.9;35
05.09.2019;17:15:00;11469;46.7;36
05.09.2019;17:25:00;4856;47.8;37
05.09.2019;17:35:00;3298;48.5;38
05.09.2019;17:45:00;1907;48.8;38
05.09.2019;17:55:00;2047;49.2;37
05.09.2019;18:05:00;1940;49.5;38
05.09.2019;18:15:00;2052;49.8;39
05.09.2019;18:25:00;2220;50.2;38
05.09.2019;18:35:00;2000;50.5;38
05.09.2019;18:45:00;1527;50.8;38
05.09.2019;18:55:00;1455;51.1;39
05.09.2019;19:05:00;1119;51.3;39
05.09.2019;19:15:00;852;51.4;38
05.09.2019;19:25:00;539;51.5;38
05.09.2019;19:35:00;611;51.6;39
05.09.2019;19:45:00;369;51.7;39
05.09.2019;19:55:00;261;51.7;39
06.09.2019;06:55:00;5;0;29
06.09.2019;07:05:00;20;0;31
06.09.2019;07:15:00;362;0;32
06.09.2019;07:25:00;820;0.1;33
06.09.2019;07:35:00;915;0.3;34
06.09.2019;07:45:00;845;0.4;34
06.09.2019;07:55:00;926;0.6;35
06.09.2019;08:05:00;772;0.7;35
06.09.2019;08:15:00;890;0.8;36
06.09.2019;08:25:00;1297;1.0;36
06.09.2019;08:35:00;2168;1.3;36
06.09.2019;08:45:00;3491;1.9;38
06.09.2019;08:55:00;2718;2.4;36
06.09.2019;09:05:00;2733;2.9;36
06.09.2019;09:15:00;3124;3.4;38
06.09.2019;09:25:00;6384;4.3;35
06.09.2019;09:35:00;6221;5.3;38
06.09.2019;09:45:00;6241;6.4;35
06.09.2019;09:55:00;6817;7.5;38
06.09.2019;10:05:00;5495;8.4;36
06.09.2019;10:15:00;5098;9.2;38
06.09.2019;10:25:00;7703;10.4;36
06.09.2019;10:35:00;14176;12.4;36
06.09.2019;10:45:00;12459;14.4;38
06.09.2019;10:55:00;8462;15.8;37
06.09.2019;11:05:00;7123;17.0;35
06.09.2019;11:15:00;8438;18.3;38
06.09.2019;11:25:00;8967;19.8;36